Regional Weather Roundup
Issued by NWS Pendleton, OR

Home | Current Version | Previous Version | Text Only | Print | Product List | Glossary On
Versions: 1 2 3 4 5 6 7 8 9 10 11 12 13 14 15 16 17 18 19 20 21 22 23 24 25 26 27 28 29 30 31 32 33 34 35 36 37 38 39 40 41 42 43 44 45 46 47 48 49 50
000
ASUS46 KPDT 300710
RWRPDT
PENDLETON REGIONAL WEATHER ROUNDUP
NATIONAL WEATHER SERVICE PENDLETON OREGON
1100 PM PST THU JAN 29 2015

NOTE: FAIR INDICATES FEW OR NO CLOUDS BELOW 12,000 FEET WITH NO
SIGNIFICANT WEATHER AND/OR OBSTRUCTIONS TO VISIBILITY.

# INDICATES UNOFFICIAL STATION AND DATA

WAZ520-300810-
EAST SLOPES OF WASHINGTON CASCADES

CITY            SKY/WX      TMP DP  RH  WIND    PRES   REMARKS
#BUMPING DAM    N/A         27  N/A N/A N2      N/A
#CLE ELUM HS    N/A         32  30  92  CALM    30.32S
#CLE ELUM LAKE  N/A         28  27  96  CALM    30.45S
#CLIFFDEL 2NW   N/A         29  28  96  CALM    N/A
#EASTON DOT     N/A         29  29  100 N5      N/A
#GLENWOOD       N/A         35  34  96  CALM    30.43F
#MANASTASH CYN  N/A         28  24  85  CALM    30.31R
#NELSON         N/A         30  29  96  CALM    30.49S
#NELSON 3SW     N/A         27  26  96  CALM    30.68S
#NILE           N/A         31  30  96  CALM    29.71R
#PEOH POINT     N/A         32  30  92  E6      N/A
#RONALD 2NW     N/A         31  23  72  CALM    30.20S
#SNOWDEN        N/A         31  29  92  CALM    N/A
#SOUTH BLEWITT  N/A         30  28  92  CALM    N/A
#TEANAWAY 4NE   N/A         31  31  100 CALM    N/A
#TROUT LAKE 1NE N/A         34  33  96  CALM    30.44S
$$

WAZ521-300810-
SIMCOE HIGHLANDS

CITY            SKY/WX      TMP DP  RH  WIND    PRES   REMARKS
#BICKLETON HS   N/A         28  28  100 CALM    N/A
#SATUS PASS DOT N/A         29  28  96  CALM    N/A
#CENTERVILLE 4W N/A         35  33  92  SE3     30.11F
#CENTERVILLE 1SWN/A         33  31  92  E3      30.42F
#GOLDENDALE     N/A         34  33  96  SE1     N/A
#GOLDENDALE 1NE N/A         34  33  96  SE3     N/A
#GOLDENDALE 1S  N/A         32  32  100 CALM    30.34F
#GOLDENDALE 5WNWN/A         34  33  96  CALM    30.44F
#GOODNOE HILLS  N/A         36  31  82  NE1     N/A
#LYLE 6NE       N/A         35  34  96  CALM    30.42S
$$

WAZ026-300810-
KITTITAS VALLEY

CITY            SKY/WX      TMP DP  RH  WIND    PRES   REMARKS
ELLENSBURG AP   CLOUDY      36  32  85  W3      30.40S FOG
#ELLENSBURG CWU N/A         34  32  92  CALM    30.42S
#ELLENSBURG 3NE N/A         33  32  96  CALM    30.38S
#ELLENSBURG 1E  N/A         34  31  89  CALM    N/A
#KITTITAS 4N    N/A         34  32  92  CALM    28.69R
#KITTITAS 3S    N/A         34  32  92  W1      30.45S
#THORP 6N       N/A         29  28  96  CALM    30.49S
$$

WAZ027-300810-
YAKIMA VALLEY

CITY            SKY/WX      TMP DP  RH  WIND    PRES   REMARKS
SUNNYSIDE AP    CLOUDY      34  32  92  W5      30.45S
YAKIMA AIRPORT  CLOUDY      38  33  82  SW3     30.43F
YAKIMA-VAGABOND CLOUDY      36  33  89  NE8     30.41F
#DONALD 2NE     N/A         34  33  96  CALM    29.27F
#MABTON         N/A         36  35  96  CALM    30.45S
#MOXEE 2E       N/A         37  36  96  CALM    30.40S
#NACHES 2SW     N/A         34  33  96  W1      30.39S
#TERRACE HTS    N/A         35  34  96  CALM    30.45S
#TOPPENISH      N/A         35  34  96  CALM    30.40S
#WAPATO 4NE     N/A         34  33  96  CALM    29.27F
#WEST VALLEY    N/A         36  33  89  CALM    30.46S
#W YAKIMA       N/A         36  33  89  CALM    30.47F
#WHITE SWAN 5E  N/A         35  33  92  SW2     30.49S
#WILEY CITY 3W  N/A         33  28  82  CALM    30.44R
$$

WAZ028-300810-
LOWER COLUMBIA BASIN...WASHINGTON

CITY            SKY/WX      TMP DP  RH  WIND    PRES   REMARKS
6HR MIN TEMP:   38; 6HR MAX TEMP:   39;

PASCO           CLOUDY      38  36  92  W6      30.46S
PROSSER AWOS    N/A         36  36  100 W7      30.48S
RICHLAND AWOS   CLOUDY      37  36  96  W5      30.46S
#BASIN CITY 5SW N/A         38  36  92  N1      30.44F
#BENTON CITY    N/A         36  34  92  W5      30.37S
#CONNELL 5N     N/A         35  34  96  N1      30.46S
#CONNELL 5NW    N/A         35  35  100 N2      30.42S
#ELTOPIA 6NW    N/A         36  35  96  N2      29.38S
#KAHLOTUS       N/A         35  34  96  CALM    30.45S
#KENNEWICK 3S   N/A         36  35  96  CALM    30.47S
#PATERSON       N/A         37  35  92  N5      30.46R
#PROSSER DOT    N/A         36  36  100 W5      N/A
#PROSSER        N/A         35  34  96  W5      30.47S
#SAGEMOOR 2W    N/A         38  36  92  CALM    30.31S
#TOUCHET 2S     N/A         37  36  96  CALM    30.45R
#WEST PASCO     N/A         39  36  89  CALM    30.45S
$$

WAZ029-300810-
FOOTHILLS OF THE BLUES...WASHINGTON

CITY            SKY/WX      TMP DP  RH  WIND    PRES   REMARKS
WALLA WALLA AP  CLOUDY      36  34  92  W5      30.42R FOG
#DAYTON SCHOOL  N/A         35  30  82  W1      30.38S
#LOWDEN 2SE     N/A         37  36  96  CALM    30.41S
#PLEASANT VIEW 1N/A         33  33  100 CALM    30.50S
#PRESCOTT       N/A         37  36  96  W1      30.45R
#WHITMAN COLLEGEN/A         36  34  92  CALM    30.51R
#WAITSBURG 5S   N/A         33  33  100 W2      30.56R
#WAITSBURG 8N   N/A         33  28  82  CALM    30.27R
#WALLA WALLA 5E N/A         35  34  96  W1      N/A
#WALLA WALLA U  N/A         37  36  96  CALM    30.47R
#WHITMAN MISSIONN/A         37  35  92  CALM    30.48R
$$

WAZ030-300810-
BLUE MOUNTAINS...WASHINGTON

CITY            SKY/WX      TMP DP  RH  WIND    PRES   REMARKS
#DIXIE 5SE      N/A         29  28  96  CALM    30.26S
#SKI BLUEWOOD   N/A         31  27  85  CALM    30.27F
$$

ORZ009-041-WAZ024-300810-
COLUMBIA RIVER GORGE

CITY            SKY/WX      TMP DP  RH  WIND    PRES   REMARKS
HOOD RIVER AP   CLOUDY      39  34  82  CALM    30.44S
THE DALLES AP   CLOUDY      41  36  82  NE5     30.45F
#ARLINGTON AIRPON/A         37  35  92  CALM    30.02S
#ARLINGTON HS   N/A         39  36  89  CALM    30.39S
#CELILO DOT     N/A         40  34  79  NE1     N/A
#LYLE           N/A         41  37  86  SE3     30.46F
#MARYHILL       N/A         37  36  96  CALM    N/A
#MOSIER 1S      N/A         37  31  79  CALM    30.44S
#MURDOCK        N/A         42  38  86  E3      30.48S
#RUFUS DOT      N/A         40  33  76  CALM    N/A

$$

ORZ510-300810-
NORTH CENTRAL OREGON

CITY            SKY/WX      TMP DP  RH  WIND    PRES   REMARKS
#CHENOWITH 1W   N/A         33  33  100 E10     N/A
#COW CYN RST AREN/A         32  32  100 N3      N/A
#DUFUR 9E       N/A         31  31  100 E7      30.50F
#GRASS VALLEY 1SN/A         31  30  96  E3      30.48S
#KENT DOT       N/A         32  28  85  NE5     N/A
#MAUPIN SCHOOL  N/A         38  34  85  CALM    30.41S
#MORO SCHOOL    N/A         33  33  100 NE5     30.38S
#SHANIKO 5WSW   N/A         31  28  88  N7      N/A
#SHANIKO 4NW    N/A         30  30  100 N5      30.30S
#TYGH VALLEY 2NEN/A         38  35  89  CALM    30.43S
#WAPANITIA AIRPON/A         34  33  96  CALM    30.45S
#WASCO DOT      N/A         36  33  89  NE1     N/A
#WASCO 5NE      N/A         34  33  96  CALM    30.46F
$$

ORZ511-300810-
CENTRAL OREGON

CITY            SKY/WX      TMP DP  RH  WIND    PRES   REMARKS
BEND AIRPORT    CLOUDY      34  34  100 CALM    30.32F FOG
MADRAS AIRPORT  N/A         36  36  100 N5      30.36S FOG
PRINEVILLE AP   CLOUDY      36  36  100 CALM    30.32S FOG
REDMOND AIRPORT CLOUDY      35  35  100 NW5     30.32S FOG
#BEND 1SW       N/A         35  34  96  CALM    N/A
#BEND-AWBREY    N/A         35  35  100 N1      30.38R
#BEND-KIM LN    N/A         36  35  96  CALM    30.28S
#CROOKED RVR RANN/A         36  34  92  E9      30.40R
#CULVER         N/A         35  33  92  N1      30.30S
#LAKE BILLY CHINN/A         35  35  100 E3      30.41R
#POWELL BUTTE 3EN/A         36  36  100 W3      N/A
#POWELL BUTTE   N/A         36  33  89  NW3     29.92S
#PRINEVILLE 3N  N/A         38  37  96  CALM    30.35R
#WARM SPRINGS   N/A         39  36  89  SW2     30.33S

$$


ORZ509-300810-
EAST SLOPES OF OREGON CASCADES

CITY            SKY/WX      TMP DP  RH  WIND    PRES   REMARKS
#BLUE BOX PASS  N/A         28  -20 11  CALM    N/A
#CAMP SHERMAN   N/A         38  36  92  CALM    30.41F
#LA PINE DOT    N/A         34  33  96  N3      N/A
#LA PINE 4NW    N/A         34  31  89  CALM    30.41S
#LAVA BUTTE DOT N/A         34  33  96  CALM    N/A
#MT BACHELOR-MIDN/A         31  27  85  NE20    N/A    WCI 19
#SISTERS AIRPOR N/A         35  35  100 N1      30.17S
#SISTERS ODOT   N/A         36  N/A N/A CALM    N/A
#SISTERS 3N     N/A         35  32  89  CALM    30.31S
#SUNRIVER       N/A         35  34  96  CALM    30.26S
#TUMALO 3W      N/A         34  33  96  CALM    30.26S
#WANOGA BUTTE D N/A         34  31  89  CALM    N/A

$$

ORZ044-300810-
LOWER COLUMBIA BASIN...OREGON

CITY            SKY/WX      TMP DP  RH  WIND    PRES   REMARKS
HERMISTON       CLOUDY      38  35  89  N3      30.44R FOG
#BOARDMAN SCHOOLN/A         39  35  85  CALM    30.47R
#BOARDMAN 8SW   N/A         38  36  92  N1      30.46S
#ECHO 8SW       N/A         37  37  100 CALM    30.40S
#IONE SCHOOL    N/A         36  25  64  CALM    30.40R
#IRRIGON 4NW    N/A         39  39  100 NW5     N/A
#UMATILLA SCHOOLN/A         36  36  100 CALM    30.47F
#UMATILLA       N/A         40  35  82  CALM    30.43R
$$

ORZ507-300810-
NORTHERN FOOTHILLS OF THE BLUES

CITY            SKY/WX      TMP DP  RH  WIND    PRES   REMARKS
PENDLETON AIRPT CLOUDY      34  33  96  CALM    30.39S FOG
#ADAMS 3WNW     N/A         32  30  92  N1      30.46R
#ATHENA         N/A         32  31  96  CALM    30.48S
#CAYUSE         N/A         34  33  96  CALM    30.45S
#HELIX SCHOOL   N/A         33  32  96  CALM    30.45S
#HELIX 3N       N/A         32  31  96  N1      30.32S
#HELIX 6SW      N/A         34  33  96  CALM    30.37S
#HOLDMAN 5SE    N/A         35  34  96  CALM    30.39R
#HOLDMAN 6E     N/A         33  33  100 CALM    30.26R
#M-F FERNDALE   N/A         36  33  89  CALM    30.41R
#M-F GROVE ELEM N/A         36  32  85  CALM    30.39R
#M-FREEWATER 5SEN/A         34  32  92  CALM    30.39R
#PENDLETON DNTN N/A         36  31  82  CALM    29.20S
#PDT AQUATIC CTRN/A         37  34  89  CALM    30.40S
#PENDLETON 5NE  N/A         34  33  96  CALM    30.35S
#PDT SUNRIDGE   N/A         35  33  92  CALM    30.42R
#PENDLETON 7NW  N/A         36  33  89  CALM    26.72S
#TUTUILLA       N/A         35  33  92  CALM    30.44R
#UMAPINE 2E     N/A         37  35  92  CALM    30.40S
#WESTON SCHOOL  N/A         32  30  92  CALM    30.35S

$$

ORZ508-300810-
SOUTHERN FOOTHILLS OF THE BLUES

CITY            SKY/WX      TMP DP  RH  WIND    PRES   REMARKS
LEXINGTON       CLOUDY      36  36  100 N6      30.41R FOG
#AJAX           N/A         34  29  82  NE2     30.27F
#CONDON SCHOOL  N/A         30  29  96  CALM    30.28R
#CONDON 5W      N/A         29  28  96  CALM    30.28S
#HEPPNER EOC    N/A         34  33  96  W3      30.40R
#HEPPNER 4NE    N/A         31  30  96  CALM    30.45R
#LEXINGTON 2SE  N/A         36  33  89  CALM    30.35R
#MIKKALO        N/A         34  34  100 N1      30.38S
#OLEX 4N        N/A         36  35  96  E3      30.40S
#RUGGS 5NE      N/A         32  26  78  W3      30.46S
#RUGGS 2SW      N/A         30  29  96  NW1     30.47R

$$

ORZ502-503-300810-
BLUE MOUNTAINS

CITY            SKY/WX      TMP DP  RH  WIND    PRES   REMARKS
MEACHAM         CLEAR       27  24  88  CALM    30.29F
#BATTLE MTN DOT N/A         32  32  100 CALM    N/A
#HARDMAN 10S    N/A         33  31  92  CALM    30.46R
#HEPPNER 15SE   N/A         31  29  92  NE1     30.18S
#LADD CYN SMT   N/A         29  24  81  E2      N/A
#LADD CREEK ODOTN/A         30  28  92  SW3     N/A
#LONG CREEK HS  N/A         30  30  100 CALM    30.24S
#N POWDER DOT   N/A         25  24  96  NW2     N/A
#PIKES PEAK     N/A         34  30  85  CALM    27.99S
#TOLLGATE       N/A         28  26  92  CALM    30.17S
#TROY SCHOOL    N/A         32  30  92  CALM    30.29R
#UKIAH          N/A         26  25  96  CALM    30.45S
#WESTON 4E      N/A         25  24  96  CALM    30.37S
$$

ORZ505-300810-
JOHN DAY BASIN

CITY            SKY/WX      TMP DP  RH  WIND    PRES   REMARKS
JOHN DAY        PTCLDY      37  30  75  SE12    30.29F WCI 29
#JOHN DAY KJDY  N/A         31  31  100 CALM    30.26F
#DAYVILLE SCHOOLN/A         36  32  85  CALM    30.27R
#MITCHELL       N/A         36  36  100 CALM    30.43S
#MONUMENT HS    N/A         32  29  89  CALM    30.32R
#MT. VERNON 5SE N/A         34  29  82  CALM    30.23S
#WINLOCK        N/A         35  33  92  CALM    30.36S
$$

ORZ506-300810-
OCHOCO AND JOHN DAY HIGHLANDS

CITY            SKY/WX      TMP DP  RH  WIND    PRES   REMARKS
#BUCK CREEK DOT N/A         34  34  100 SE12    N/A    WCI 25
#HORSE RIDGE DO N/A         35  35  100 NW1     N/A
#KEYES SMT DOT  N/A         33  32  96  W1      N/A
#PAULINA SCHOOL N/A         50  35  56  CALM    30.23R
#PINE MTN OBS   N/A         35  30  82  CALM    N/A
#PRAIRIE CITY   N/A         22  16  77  SE1     30.55R
#SENECA         N/A         26  N/A N/A CALM    N/A
#SENECA 9NW     N/A         25  24  96  CALM    30.40S
$$

ORZ049-300810-
GRANDE RONDE VALLEY

CITY            SKY/WX      TMP DP  RH  WIND    PRES   REMARKS
LA GRANDE       PTCLDY      28  21  75  CALM    30.33R
#COVE           N/A         30  25  81  E1      30.03S
#COVE SCHOOL    N/A         30  27  88  E1      30.28F
#COVE 6NW       N/A         28  25  88  CALM    30.48S
#ELGIN 3N       N/A         26  19  74  CALM    30.13S
#ELGIN 1E       N/A         30  26  85  CALM    N/A
#IMBLER SCHOOL  N/A         28  25  88  CALM    30.28S
#ISLAND CITY 4N N/A         40  39  96  CALM    30.27S
#LADD CYN DOT   N/A         35  28  75  S7      N/A
#UNION 1S       N/A         34  29  82  CALM    30.34S
$$

ORZ050-300810-
WALLOWA COUNTY

CITY            SKY/WX      TMP DP  RH  WIND    PRES   REMARKS
#ENTERPRISE AP  N/A         28  24  85  CALM    30.23R
#ENTERPRISE HS  N/A         27  25  92  CALM    30.31R
#IMNAHA SCHOOL  N/A         32  29  89  S2      30.35S
#IMNAHA 10S     N/A         33  28  82  SW5     30.31R
#JOSEPH 3N      N/A         24  23  96  CALM    30.32S
#JOSEPH 3W      N/A         28  14  55  SW2     30.10S
#LOSTINE        N/A         26  23  88  CALM    30.27R
#MT HOWARD 8000 N/A         33  -8  16  CALM    30.24F
#PROMISE 1S     N/A         30  27  88  CALM    30.53R
#SHEEP RDG 7000 N/A         34  -9  15  CALM    30.33R
#WALLOWA SCHOOL N/A         26  25  96  CALM    31.46R



$$



USA.gov is the U.S. government's official web portal to all federal, state and local government web resources and services.